| time (UTC) | temp C | wind direction | speed KPH | gust KPH | rain 1hr cm | rain 24hr cm | rain mn cm | humidity % | barometer mb |
| 20260507052701 | 15 | 32 | 3.2 | 4.8 | 0.00 | 0.00 | 0.00 | 86 | 1016.7 |
| 20260507052156 | 15 | 47 | 6.4 | 9.7 | 0.00 | 0.00 | 0.00 | 86 | 1016.6 |
| 20260507051654 | 16 | 60 | 6.4 | 6.4 | 0.00 | 0.00 | 0.00 | 86 | 1016.5 |
| 20260507051150 | 16 | 33 | 3.2 | 4.8 | 0.00 | 0.00 | 0.00 | 86 | 1016.7 |
| 20260507050648 | 16 | 11 | 9.7 | 12.9 | 0.00 | 0.00 | 0.00 | 86 | 1016.9 |
| 20260507050144 | 16 | 323 | 3.2 | 4.8 | 0.00 | 0.00 | 0.00 | 86 | 1017.0 |
| 20260507045641 | 16 | 24 | 4.8 | 4.8 | 0.00 | 0.00 | 0.00 | 85 | 1016.6 |
| 20260507045138 | 16 | 353 | 11.3 | 14.5 | 0.00 | 0.00 | 0.00 | 85 | 1016.6 |
| 20260507044634 | 16 | 348 | 9.7 | 12.9 | 0.00 | 0.00 | 0.00 | 85 | 1017.2 |
| 20260507044126 | 16 | 10 | 3.2 | 6.4 | 0.00 | 0.00 | 0.00 | 85 | 1017.0 |
| 20260507043621 | 16 | 36 | 9.7 | 12.9 | 0.00 | 0.00 | 0.00 | 85 | 1016.8 |
| 20260507043119 | 16 | 17 | 8.0 | 14.5 | 0.00 | 0.00 | 0.00 | 84 | 1017.0 |
| 20260507042614 | 16 | 53 | 11.3 | 17.7 | 0.00 | 0.00 | 0.00 | 85 | 1017.1 |
| 20260507042104 | 16 | 48 | 6.4 | 12.9 | 0.00 | 0.00 | 0.00 | 85 | 1016.8 |
| 20260507041601 | 16 | 18 | 4.8 | 6.4 | 0.00 | 0.00 | 0.00 | 85 | 1017.1 |
| 20260507041058 | 16 | 353 | 11.3 | 14.5 | 0.00 | 0.00 | 0.00 | 85 | 1017.0 |
| 20260507040555 | 16 | 12 | 8.0 | 12.9 | 0.00 | 0.00 | 0.00 | 85 | 1017.0 |
| 20260507040051 | 16 | 323 | 4.8 | 9.7 | 0.00 | 0.00 | 0.00 | 86 | 1017.1 |
| 20260507035547 | 16 | 319 | 12.9 | 14.5 | 0.00 | 0.00 | 0.00 | 86 | 1017.2 |
| 20260507035044 | 16 | 24 | 16.1 | 20.9 | 0.00 | 0.00 | 0.00 | 86 | 1017.0 |
| 20260507034540 | 16 | 340 | 8.0 | 9.7 | 0.00 | 0.00 | 0.00 | 86 | 1016.8 |
| 20260507034038 | 16 | 357 | 9.7 | 16.1 | 0.00 | 0.00 | 0.00 | 86 | 1017.1 |
| 20260507033536 | 16 | 3 | 8.0 | 11.3 | 0.00 | 0.00 | 0.00 | 86 | 1016.7 |
| 20260507033033 | 16 | 358 | 8.0 | 14.5 | 0.00 | 0.00 | 0.00 | 86 | 1016.6 |
| 20260507032530 | 16 | 41 | 9.7 | 12.9 | 0.00 | 0.00 | 0.00 | 86 | 1016.6 |
| 20260507032026 | 16 | 355 | 8.0 | 11.3 | 0.00 | 0.00 | 0.00 | 86 | 1017.0 |
| 20260507031522 | 16 | 4 | 1.6 | 1.6 | 0.00 | 0.00 | 0.00 | 86 | 1016.7 |
| 20260507031020 | 16 | 341 | 14.5 | 20.9 | 0.00 | 0.00 | 0.00 | 86 | 1016.7 |
| 20260507030516 | 16 | 359 | 6.4 | 9.7 | 0.00 | 0.00 | 0.00 | 86 | 1016.5 |
| 20260507030009 | 16 | 333 | 9.7 | 12.9 | 0.00 | 0.00 | 0.00 | 86 | 1016.3 |
| 20260507025505 | 16 | 348 | 6.4 | 6.4 | 0.00 | 0.00 | 0.00 | 85 | 1016.5 |
| 20260507025003 | 16 | 32 | 4.8 | 4.8 | 0.00 | 0.00 | 0.00 | 85 | 1016.6 |
| 20260507024501 | 16 | 336 | 11.3 | 12.9 | 0.00 | 0.00 | 0.00 | 85 | 1016.6 |
| 20260507023956 | 16 | 295 | 3.2 | 3.2 | 0.00 | 0.00 | 0.00 | 86 | 1016.3 |
| 20260507023453 | 16 | 4 | 6.4 | 9.7 | 0.00 | 0.00 | 0.00 | 85 | 1016.3 |
| 20260507022950 | 16 | 15 | 3.2 | 4.8 | 0.00 | 0.00 | 0.00 | 85 | 1016.3 |
| 20260507022447 | 16 | 357 | 4.8 | 6.4 | 0.00 | 0.00 | 0.00 | 85 | 1016.0 |
| 20260507021942 | 16 | 353 | 6.4 | 6.4 | 0.00 | 0.00 | 0.00 | 85 | 1015.9 |
| 20260507021437 | 16 | 353 | 6.4 | 6.4 | 0.00 | 0.00 | 0.00 | 85 | 1015.9 |
| 20260507020930 | 16 | 283 | 1.6 | 3.2 | 0.00 | 0.00 | 0.00 | 85 | 1016.0 |
| 20260507020426 | 16 | 339 | 9.7 | 12.9 | 0.00 | 0.00 | 0.00 | 85 | 1015.7 |
| 20260507015924 | 16 | 331 | 6.4 | 6.4 | 0.00 | 0.00 | 0.00 | 85 | 1015.9 |
| 20260507015422 | 16 | 356 | 6.4 | 9.7 | 0.00 | 0.00 | 0.00 | 85 | 1015.6 |
| 20260507014919 | 16 | 325 | 8.0 | 11.3 | 0.00 | 0.00 | 0.00 | 85 | 1015.6 |
| 20260507014415 | 16 | 319 | 6.4 | 9.7 | 0.00 | 0.00 | 0.00 | 86 | 1015.6 |
| 20260507013911 | 16 | 2 | 6.4 | 6.4 | 0.00 | 0.00 | 0.00 | 85 | 1015.2 |
| 20260507013408 | 16 | 357 | 8.0 | 11.3 | 0.00 | 0.00 | 0.00 | 85 | 1015.3 |
| 20260507012905 | 16 | 344 | 9.7 | 12.9 | 0.00 | 0.00 | 0.00 | 85 | 1015.0 |
| 20260507012401 | 16 | 321 | 9.7 | 12.9 | 0.00 | 0.00 | 0.00 | 85 | 1015.0 |
| 20260507011853 | 16 | 319 | 4.8 | 6.4 | 0.00 | 0.00 | 0.00 | 85 | 1015.1 |
| 20260507011349 | 16 | 340 | 8.0 | 11.3 | 0.00 | 0.00 | 0.00 | 85 | 1014.7 |
| 20260507010844 | 16 | 344 | 6.4 | 9.7 | 0.00 | 0.00 | 0.00 | 85 | 1015.2 |
| 20260507010340 | 16 | 293 | 9.7 | 14.5 | 0.00 | 0.00 | 0.00 | 84 | 1015.0 |
| 20260507005837 | 16 | 338 | 6.4 | 6.4 | 0.00 | 0.00 | 0.00 | 85 | 1014.6 |
| 20260507005334 | 16 | 353 | 6.4 | 9.7 | 0.00 | 0.00 | 0.00 | 85 | 1014.7 |
| 20260507004831 | 16 | 328 | 9.7 | 14.5 | 0.00 | 0.00 | 0.00 | 85 | 1014.6 |
| 20260507004328 | 16 | 343 | 9.7 | 12.9 | 0.00 | 0.00 | 0.00 | 85 | 1014.5 |
| 20260507003825 | 16 | 336 | 1.6 | 1.6 | 0.00 | 0.00 | 0.00 | 85 | 1014.7 |
| 20260507003321 | 16 | 344 | 6.4 | 6.4 | 0.00 | 0.00 | 0.00 | 84 | 1014.4 |
| 20260507002815 | 16 | 344 | 8.0 | 9.7 | 0.00 | 0.00 | 0.00 | 84 | 1014.4 |
| 20260507002311 | 16 | 329 | 4.8 | 4.8 | 0.00 | 0.00 | 0.00 | 85 | 1014.5 |
| 20260507001803 | 16 | 347 | 9.7 | 14.5 | 0.00 | 0.00 | 0.00 | 85 | 1014.6 |
| 20260507001301 | 16 | 337 | 11.3 | 20.9 | 0.00 | 0.00 | 0.00 | 85 | 1014.5 |
| 20260507000756 | 16 | 348 | 6.4 | 11.3 | 0.00 | 0.00 | 0.00 | 85 | 1014.7 |
| 20260507000252 | 16 | 318 | 4.8 | 4.8 | 0.00 | 0.00 | 0.00 | 85 | 1014.5 |
| 20260506235749 | 16 | 309 | 3.2 | 4.8 | 0.00 | 0.00 | 0.00 | 85 | 1014.1 |
| 20260506235244 | 16 | 341 | 6.4 | 9.7 | 0.00 | 0.00 | 0.00 | 85 | 1014.7 |
| 20260506234742 | 16 | 340 | 3.2 | 4.8 | 0.00 | 0.00 | 0.00 | 85 | 1014.5 |
| 20260506234239 | 16 | 359 | 9.7 | 12.9 | 0.00 | 0.00 | 0.00 | 85 | 1014.3 |
| 20260506233737 | 16 | 344 | 4.8 | 6.4 | 0.00 | 0.00 | 0.00 | 85 | 1014.2 |
| 20260506233233 | 16 | 326 | 8.0 | 9.7 | 0.00 | 0.00 | 0.00 | 85 | 1014.3 |
| 20260506232730 | 16 | 357 | 3.2 | 4.8 | 0.00 | 0.00 | 0.00 | 85 | 1014.3 |
| 20260506232224 | 16 | 337 | 9.7 | 11.3 | 0.00 | 0.00 | 0.00 | 85 | 1014.3 |
| 20260506231722 | 16 | 326 | 6.4 | 11.3 | 0.00 | 0.00 | 0.00 | 85 | 1014.2 |
| 20260506231220 | 16 | 332 | 8.0 | 11.3 | 0.00 | 0.00 | 0.00 | 85 | 1014.3 |
| 20260506230717 | 16 | 344 | 4.8 | 6.4 | 0.00 | 0.00 | 0.00 | 85 | 1014.3 |
| 20260506230214 | 16 | 357 | 9.7 | 12.9 | 0.00 | 0.00 | 0.00 | 86 | 1014.1 |
| 20260506225710 | 16 | 345 | 4.8 | 4.8 | 0.00 | 0.00 | 0.00 | 86 | 1014.3 |
| 20260506225207 | 16 | 277 | 6.4 | 6.4 | 0.00 | 0.00 | 0.00 | 86 | 1014.2 |
| 20260506224704 | 16 | 5 | 6.4 | 11.3 | 0.00 | 0.00 | 0.00 | 86 | 1014.0 |
| 20260506224201 | 16 | 342 | 6.4 | 11.3 | 0.00 | 0.00 | 0.00 | 86 | 1014.2 |
| 20260506223657 | 15 | 21 | 4.8 | 6.4 | 0.00 | 0.00 | 0.00 | 86 | 1014.2 |
| 20260506223153 | 16 | 349 | 9.7 | 14.5 | 0.00 | 0.00 | 0.00 | 86 | 1014.2 |
| 20260506222650 | 15 | 332 | 4.8 | 6.4 | 0.00 | 0.00 | 0.00 | 86 | 1014.2 |
| 20260506222145 | 15 | 326 | 6.4 | 6.4 | 0.00 | 0.00 | 0.00 | 87 | 1014.3 |
| 20260506221644 | 15 | 336 | 8.0 | 11.3 | 0.00 | 0.00 | 0.00 | 87 | 1014.3 |
| 20260506221142 | 15 | 326 | 14.5 | 22.5 | 0.00 | 0.00 | 0.00 | 86 | 1014.4 |
| 20260506220638 | 16 | 333 | 16.1 | 17.7 | 0.00 | 0.00 | 0.00 | 85 | 1014.3 |
| 20260506220133 | 16 | 320 | 12.9 | 16.1 | 0.00 | 0.00 | 0.00 | 86 | 1014.1 |
| 20260506215630 | 16 | 346 | 3.2 | 9.7 | 0.00 | 0.00 | 0.00 | 85 | 1014.0 |
| 20260506215125 | 16 | 307 | 3.2 | 3.2 | 0.00 | 0.00 | 0.00 | 85 | 1013.8 |
| 20260506214622 | 16 | 343 | 9.7 | 16.1 | 0.00 | 0.00 | 0.00 | 85 | 1014.0 |
| 20260506214120 | 17 | 334 | 9.7 | 11.3 | 0.00 | 0.00 | 0.00 | 83 | 1014.0 |
| 20260506213618 | 16 | 323 | 8.0 | 12.9 | 0.00 | 0.00 | 0.00 | 84 | 1013.9 |
| 20260506213115 | 16 | 312 | 4.8 | 9.7 | 0.00 | 0.00 | 0.00 | 85 | 1014.0 |
| 20260506212612 | 16 | 344 | 11.3 | 16.1 | 0.00 | 0.00 | 0.00 | 85 | 1014.2 |
| 20260506212107 | 16 | 298 | 6.4 | 9.7 | 0.00 | 0.00 | 0.00 | 84 | 1014.0 |
| 20260506211603 | 16 | 303 | 6.4 | 6.4 | 0.00 | 0.00 | 0.00 | 85 | 1014.3 |
| 20260506211100 | 16 | 273 | 14.5 | 20.9 | 0.00 | 0.00 | 0.00 | 84 | 1014.2 |
| 20260506210556 | 16 | 289 | 0.0 | 1.6 | 0.00 | 0.00 | 0.00 | 84 | 1014.2 |
| 20260506210053 | 16 | 340 | 14.5 | 24.1 | 0.00 | 0.00 | 0.00 | 84 | 1014.2 |
| 20260506205550 | 16 | 331 | 12.9 | 17.7 | 0.00 | 0.00 | 0.00 | 84 | 1014.6 |
| 20260506205045 | 16 | 344 | 12.9 | 14.5 | 0.00 | 0.00 | 0.00 | 84 | 1014.5 |
| 20260506204543 | 16 | 295 | 11.3 | 14.5 | 0.00 | 0.00 | 0.00 | 85 | 1014.7 |
| 20260506204040 | 16 | 305 | 19.3 | 22.5 | 0.00 | 0.00 | 0.00 | 84 | 1014.6 |
| 20260506203539 | 17 | 29 | 12.9 | 16.1 | 0.00 | 0.00 | 0.00 | 84 | 1014.6 |
| 20260506203035 | 17 | 287 | 11.3 | 14.5 | 0.00 | 0.00 | 0.00 | 84 | 1014.3 |
| 20260506202532 | 17 | 315 | 12.9 | 17.7 | 0.00 | 0.00 | 0.00 | 83 | 1014.4 |
| 20260506202028 | 17 | 293 | 12.9 | 14.5 | 0.00 | 0.00 | 0.00 | 82 | 1014.4 |
| 20260506201526 | 17 | 324 | 11.3 | 14.5 | 0.00 | 0.00 | 0.00 | 83 | 1014.0 |
| 20260506201022 | 18 | 325 | 6.4 | 17.7 | 0.00 | 0.00 | 0.00 | 83 | 1014.1 |
| 20260506200519 | 18 | 314 | 22.5 | 27.4 | 0.00 | 0.00 | 0.00 | 82 | 1014.1 |
| 20260506200016 | 18 | 323 | 14.5 | 17.7 | 0.00 | 0.00 | 0.00 | 82 | 1013.9 |
| 20260506195513 | 18 | 335 | 17.7 | 24.1 | 0.00 | 0.00 | 0.00 | 82 | 1013.9 |
| 20260506195009 | 18 | 324 | 16.1 | 20.9 | 0.00 | 0.00 | 0.00 | 83 | 1014.0 |
| 20260506194507 | 19 | 285 | 11.3 | 16.1 | 0.00 | 0.00 | 0.00 | 83 | 1013.9 |
| 20260506194003 | 18 | 335 | 14.5 | 17.7 | 0.00 | 0.00 | 0.00 | 84 | 1013.7 |
| 20260506193501 | 19 | 12 | 16.1 | 25.7 | 0.00 | 0.00 | 0.00 | 82 | 1014.0 |
| 20260506192956 | 19 | 321 | 11.3 | 14.5 | 0.00 | 0.00 | 0.00 | 83 | 1013.7 |
| 20260506192454 | 19 | 316 | 9.7 | 12.9 | 0.00 | 0.00 | 0.00 | 83 | 1013.9 |
| 20260506191950 | 20 | 350 | 6.4 | 9.7 | 0.00 | 0.00 | 0.00 | 82 | 1013.8 |
| 20260506191447 | 20 | 285 | 12.9 | 16.1 | 0.00 | 0.00 | 0.00 | 82 | 1013.9 |
| 20260506190943 | 20 | 324 | 9.7 | 11.3 | 0.00 | 0.00 | 0.00 | 81 | 1013.8 |
| 20260506190440 | 21 | 288 | 11.3 | 14.5 | 0.00 | 0.00 | 0.00 | 80 | 1013.9 |
| 20260506185937 | 21 | 270 | 12.9 | 17.7 | 0.00 | 0.00 | 0.00 | 80 | 1013.9 |
| 20260506185434 | 21 | 346 | 6.4 | 11.3 | 0.00 | 0.00 | 0.00 | 80 | 1013.7 |
| 20260506184931 | 21 | 15 | 6.4 | 11.3 | 0.00 | 0.00 | 0.00 | 79 | 1013.7 |
| 20260506184428 | 21 | 305 | 11.3 | 12.9 | 0.00 | 0.00 | 0.00 | 80 | 1013.7 |
| 20260506183925 | 21 | 350 | 9.7 | 12.9 | 0.00 | 0.00 | 0.00 | 81 | 1013.6 |
| 20260506183420 | 22 | 311 | 9.7 | 12.9 | 0.00 | 0.00 | 0.00 | 78 | 1013.7 |
| 20260506182918 | 21 | 356 | 3.2 | 4.8 | 0.00 | 0.00 | 0.00 | 79 | 1013.7 |
| 20260506182415 | 21 | 39 | 9.7 | 12.9 | 0.00 | 0.00 | 0.00 | 80 | 1013.7 |
| 20260506181912 | 21 | 332 | 8.0 | 11.3 | 0.00 | 0.00 | 0.00 | 80 | 1013.5 |
| 20260506181410 | 21 | 356 | 6.4 | 6.4 | 0.00 | 0.00 | 0.00 | 80 | 1014.1 |
| 20260506180907 | 21 | 329 | 4.8 | 6.4 | 0.00 | 0.00 | 0.00 | 80 | 1013.7 |
| 20260506180403 | 21 | 338 | 0.0 | 1.6 | 0.00 | 0.00 | 0.00 | 81 | 1013.5 |
| 20260506175900 | 20 | 29 | 6.4 | 6.4 | 0.00 | 0.00 | 0.00 | 81 | 1013.5 |
| 20260506175356 | 20 | 311 | 11.3 | 12.9 | 0.00 | 0.00 | 0.00 | 83 | 1013.2 |
| 20260506174853 | 20 | 65 | 8.0 | 11.3 | 0.00 | 0.00 | 0.00 | 84 | 1013.4 |
| 20260506174351 | 20 | 8 | 6.4 | 6.4 | 0.00 | 0.00 | 0.00 | 83 | 1013.1 |
| 20260506173848 | 20 | 359 | 9.7 | 11.3 | 0.00 | 0.00 | 0.00 | 84 | 1013.1 |
| 20260506173345 | 19 | 76 | 3.2 | 11.3 | 0.00 | 0.00 | 0.00 | 84 | 1013.4 |
| 20260506172842 | 18 | 32 | 6.4 | 9.7 | 0.00 | 0.00 | 0.00 | 85 | 1013.6 |
| 20260506172338 | 19 | 25 | 4.8 | 6.4 | 0.00 | 0.00 | 0.00 | 85 | 1013.7 |
| 20260506171836 | 18 | 323 | 4.8 | 4.8 | 0.00 | 0.00 | 0.00 | 87 | 1013.4 |
| 20260506171333 | 18 | 26 | 3.2 | 4.8 | 0.00 | 0.00 | 0.00 | 86 | 1013.5 |
| 20260506170831 | 18 | 33 | 3.2 | 9.7 | 0.00 | 0.00 | 0.00 | 88 | 1013.6 |
| 20260506170326 | 17 | 27 | 12.9 | 20.9 | 0.00 | 0.00 | 0.00 | 88 | 1013.6 |
| 20260506165825 | 17 | 43 | 6.4 | 9.7 | 0.00 | 0.00 | 0.00 | 89 | 1013.7 |
| 20260506165323 | 17 | 45 | 8.0 | 9.7 | 0.00 | 0.00 | 0.00 | 89 | 1013.9 |
| 20260506164814 | 17 | 44 | 1.6 | 4.8 | 0.00 | 0.00 | 0.00 | 90 | 1014.0 |
| 20260506164310 | 17 | 25 | 6.4 | 12.9 | 0.00 | 0.00 | 0.00 | 89 | 1014.3 |
| 20260506163808 | 17 | 7 | 9.7 | 14.5 | 0.00 | 0.00 | 0.00 | 89 | 1014.7 |
| 20260506163302 | 17 | 351 | 3.2 | 3.2 | 0.00 | 0.00 | 0.00 | 90 | 1014.4 |
| 20260506162758 | 16 | 21 | 1.6 | 4.8 | 0.00 | 0.00 | 0.00 | 92 | 1014.4 |
| 20260506162256 | 16 | 56 | 1.6 | 3.2 | 0.00 | 0.00 | 0.00 | 93 | 1014.8 |
| 20260506161753 | 16 | 25 | 11.3 | 16.1 | 0.00 | 0.00 | 0.00 | 94 | 1014.5 |
| 20260506161250 | 16 | 333 | 8.0 | 25.7 | 0.00 | 0.00 | 0.00 | 95 | 1015.1 |
| 20260506160747 | 16 | 332 | 14.5 | 20.9 | 0.00 | 0.00 | 0.00 | 96 | 1015.5 |
| 20260506160244 | 16 | 331 | 12.9 | 14.5 | 0.00 | 0.00 | 0.00 | 96 | 1015.8 |
| 20260506155743 | 16 | 36 | 9.7 | 17.7 | 0.00 | 0.00 | 0.00 | 95 | 1015.2 |
| 20260506155239 | 16 | 359 | 4.8 | 9.7 | 0.00 | 0.00 | 0.00 | 95 | 1015.3 |
| 20260506153347 | 17 | 321 | 14.5 | 16.1 | 0.00 | 0.00 | 0.00 | 94 | 1014.9 |
| 20260506152844 | 18 | 327 | 14.5 | 17.7 | 0.00 | 0.00 | 0.00 | 94 | 1014.8 |
| 20260506152341 | 18 | 10 | 11.3 | 14.5 | 0.00 | 0.00 | 0.00 | 94 | 1014.5 |
| 20260506151839 | 18 | 319 | 11.3 | 17.7 | 0.00 | 0.00 | 0.00 | 94 | 1014.2 |
| 20260506151336 | 18 | 347 | 11.3 | 17.7 | 0.00 | 0.00 | 0.00 | 93 | 1013.9 |
| 20260506150833 | 18 | 344 | 12.9 | 16.1 | 0.00 | 0.00 | 0.00 | 93 | 1013.9 |
| 20260506150330 | 18 | 294 | 24.1 | 33.8 | 0.00 | 0.00 | 0.00 | 93 | 1013.7 |
| 20260506145827 | 19 | 25 | 9.7 | 12.9 | 0.00 | 0.00 | 0.00 | 92 | 1013.4 |
| 20260506145323 | 20 | 27 | 12.9 | 24.1 | 0.00 | 0.00 | 0.00 | 91 | 1013.1 |
| 20260506144821 | 21 | 322 | 11.3 | 16.1 | 0.00 | 0.00 | 0.00 | 90 | 1012.5 |
| 20260506144317 | 25 | 16 | 11.3 | 20.9 | 0.00 | 0.00 | 0.00 | 86 | 1012.4 |
| 20260506143815 | 25 | 157 | 1.6 | 1.6 | 0.00 | 0.00 | 0.00 | 89 | 1012.2 |
| 20260506104524 | 23 | 158 | 3.2 | 3.2 | 0.00 | 0.00 | 0.00 | 94 | 1010.6 |
| 20260506104016 | 23 | 158 | 3.2 | 3.2 | 0.00 | 0.00 | 0.00 | 94 | 1010.6 |
| 20260506103513 | 23 | 163 | 4.8 | 4.8 | 0.00 | 0.00 | 0.00 | 94 | 1010.6 |
| 20260506072906 | 23 | 178 | 4.8 | 6.4 | 0.00 | 0.00 | 0.00 | 92 | 1009.8 |
| 20260506072403 | 23 | 178 | 4.8 | 6.4 | 0.00 | 0.00 | 0.00 | 92 | 1009.8 |
| 20260506071900 | 23 | 178 | 4.8 | 6.4 | 0.00 | 0.00 | 0.00 | 92 | 1009.8 |
| 20260506062411 | 23 | 210 | 9.7 | 24.1 | 0.00 | 0.00 | 0.00 | 92 | 1009.8 |
| 20260506061906 | 23 | 135 | 17.7 | 24.1 | 0.00 | 0.00 | 0.00 | 92 | 1009.8 |
| 20260506061403 | 23 | 190 | 8.0 | 12.9 | 0.00 | 0.00 | 0.00 | 92 | 1009.6 |
| 20260506060901 | 23 | 189 | 9.7 | 14.5 | 0.00 | 0.00 | 0.00 | 92 | 1009.6 |
| 20260506060359 | 23 | 191 | 14.5 | 17.7 | 0.00 | 0.00 | 0.00 | 92 | 1009.7 |